When you browse on this site, cookies collect data to enhance your experience and personalize the content and advertising you see.
Visit our Privacy Policy to learn more. By continuing to use the site, you agree to this use of cookies and data.
  • In Hungary
  • List of Countries
  • For 7 days
  • Water Temperature
  • Satellite Maps
  • Weather Map
  • News
  • Weather Widgets
  • user-avatar
    Login

    Hourly Weather Hobart

    Today, 24 January, Thursday

    Time Temperature Precipitation Wind Pressure Humidity
    00:00 +10°C° 0 mm 1 mps 752 mmHg 82%
    01:00 +10°C° 0 mm 1 mps 751 mmHg 84%
    02:00 +10°C° 0 mm 1 mps 751 mmHg 85%
    03:00 +9°C° 0 mm 1 mps 751 mmHg 85%
    04:00 +10°C° 0 mm 1 mps 750 mmHg 85%
    05:00 +10°C° 0 mm 2 mps 751 mmHg 78%
    06:00 +13°C° 0 mm 2 mps 751 mmHg 70%
    07:00 +14°C° 0 mm 2 mps 751 mmHg 63%
    08:00 +17°C° 0 mm 2 mps 750 mmHg 55%
    09:00 +20°C° 0 mm 2 mps 750 mmHg 46%
    10:00 +24°C° 0 mm 2 mps 750 mmHg 38%
    11:00 +25°C° 0 mm 2 mps 749 mmHg 35%
    12:00 +27°C° 0 mm 3 mps 749 mmHg 33%
    13:00 +28°C° 0 mm 4 mps 749 mmHg 31%
    14:00 +28°C° 0 mm 4 mps 748 mmHg 31%
    15:00 +28°C° 0 mm 5 mps 747 mmHg 31%
    16:00 +27°C° 0 mm 5 mps 746 mmHg 33%
    17:00 +27°C° 0 mm 5 mps 746 mmHg 36%
    18:00 +26°C° 0 mm 4 mps 746 mmHg 39%
    19:00 +25°C° 0 mm 4 mps 745 mmHg 42%
    20:00 +23°C° 0 mm 4 mps 745 mmHg 45%
    21:00 +21°C° 0 mm 4 mps 744 mmHg 48%
    22:00 +20°C° 0 mm 4 mps 743 mmHg 51%
    23:00 +20°C° 0 mm 4 mps 743 mmHg 48%

    Tomorrow, 25 January, Friday

    Time Temperature Precipitation Wind Pressure Humidity
    00:00 +20°C° 0 mm 4 mps 742 mmHg 46%
    01:00 +21°C° 0 mm 4 mps 741 mmHg 44%
    02:00 +22°C° 0 mm 4 mps 741 mmHg 41%
    03:00 +23°C° 0 mm 4 mps 740 mmHg 38%
    04:00 +25°C° 0 mm 4 mps 739 mmHg 35%
    05:00 +27°C° 0 mm 5 mps 739 mmHg 33%
    06:00 +29°C° 0 mm 5 mps 739 mmHg 31%
    07:00 +32°C° 0 mm 6 mps 739 mmHg 29%
    08:00 +34°C° 0 mm 6 mps 739 mmHg 26%
    09:00 +38°C° 0 mm 7 mps 738 mmHg 24%
    10:00 +40°C° 0 mm 7 mps 738 mmHg 21%
    11:00 +41°C° 0 mm 6 mps 738 mmHg 22%
    12:00 +41°C° 0 mm 6 mps 737 mmHg 23%
    13:00 +41°C° 0 mm 5 mps 737 mmHg 24%
    14:00 +40°C° 0 mm 5 mps 737 mmHg 27%
    15:00 +39°C° 0 mm 5 mps 737 mmHg 30%
    16:00 +36°C° 0 mm 5 mps 736 mmHg 33%
    17:00 +34°C° 0.1 mm 4 mps 736 mmHg 36%
    18:00 +30°C° 0.1 mm 3 mps 737 mmHg 39%
    19:00 +28°C° 0.1 mm 2 mps 737 mmHg 43%
    20:00 +26°C° 0.1 mm 2 mps 737 mmHg 47%
    21:00 +24°C° 0.1 mm 2 mps 738 mmHg 51%
    22:00 +20°C° 0.1 mm 2 mps 738 mmHg 55%
    23:00 +20°C° 0 mm 3 mps 738 mmHg 60%

    Day after tomorrow, 26 January, Saturday

    Time Temperature Precipitation Wind Pressure Humidity
    00:00 +19°C° 0 mm 3 mps 739 mmHg 66%
    01:00 +19°C° 0 mm 4 mps 739 mmHg 71%
    02:00 +18°C° 0 mm 3 mps 739 mmHg 71%
    03:00 +17°C° 0 mm 3 mps 740 mmHg 71%
    04:00 +16°C° 0 mm 2 mps 740 mmHg 72%
    05:00 +17°C° 0 mm 2 mps 740 mmHg 69%
    06:00 +17°C° 0 mm 2 mps 741 mmHg 66%
    07:00 +17°C° 0 mm 2 mps 742 mmHg 63%
    08:00 +20°C° 0 mm 1 mps 742 mmHg 56%
    09:00 +22°C° 0 mm 1 mps 742 mmHg 49%
    10:00 +24°C° 0 mm 1 mps 742 mmHg 42%
    11:00 +26°C° 0 mm 1 mps 742 mmHg 38%
    12:00 +28°C° 0 mm 2 mps 741 mmHg 34%
    13:00 +30°C° 0 mm 3 mps 741 mmHg 30%
    14:00 +28°C° 0 mm 3 mps 740 mmHg 38%
    15:00 +25°C° 0 mm 4 mps 740 mmHg 46%
    16:00 +22°C° 0 mm 4 mps 739 mmHg 54%
    17:00 +20°C° 0 mm 4 mps 739 mmHg 64%
    18:00 +18°C° 0 mm 3 mps 739 mmHg 74%
    19:00 +16°C° 0 mm 2 mps 739 mmHg 84%
    20:00 +16°C° 0.1 mm 2 mps 740 mmHg 84%
    21:00 +15°C° 0.1 mm 2 mps 740 mmHg 85%
    22:00 +15°C° 0.1 mm 2 mps 740 mmHg 85%
    23:00 +14°C° 0 mm 2 mps 740 mmHg 85%

    27 January, Sunday

    Time Temperature Precipitation Wind Pressure Humidity
    00:00 +13°C° 0 mm 2 mps 739 mmHg 85%
    01:00 +13°C° 0 mm 2 mps 739 mmHg 85%
    02:00 +13°C° 0 mm 2 mps 739 mmHg 84%
    03:00 +13°C° 0 mm 2 mps 740 mmHg 84%
    04:00 +12°C° 0 mm 2 mps 740 mmHg 83%
    05:00 +13°C° 0 mm 3 mps 740 mmHg 77%
    06:00 +14°C° 0 mm 3 mps 740 mmHg 70%
    07:00 +17°C° 0 mm 4 mps 740 mmHg 63%
    08:00 +17°C° 0.1 mm 4 mps 740 mmHg 61%
    09:00 +17°C° 0.1 mm 4 mps 741 mmHg 59%
    10:00 +18°C° 0.1 mm 4 mps 741 mmHg 58%
    11:00 +19°C° 0 mm 5 mps 741 mmHg 54%
    12:00 +19°C° 0 mm 6 mps 740 mmHg 50%
    13:00 +20°C° 0 mm 6 mps 740 mmHg 47%
    14:00 +20°C° 0 mm 6 mps 740 mmHg 47%
    15:00 +20°C° 0 mm 6 mps 740 mmHg 47%
    16:00 +19°C° 0 mm 6 mps 740 mmHg 47%
    17:00 +19°C° 0 mm 6 mps 741 mmHg 50%
    18:00 +17°C° 0 mm 5 mps 741 mmHg 53%
    19:00 +16°C° 0 mm 5 mps 742 mmHg 56%
    20:00 +17°C° 0 mm 4 mps 742 mmHg 59%
    21:00 +15°C° 0 mm 4 mps 743 mmHg 62%
    22:00 +16°C° 0 mm 3 mps 743 mmHg 65%
    23:00 +14°C° 0 mm 3 mps 743 mmHg 66%

    28 January, Monday

    Time Temperature Precipitation Wind Pressure Humidity
    00:00 +14°C° 0 mm 3 mps 743 mmHg 68%
    01:00 +14°C° 0 mm 3 mps 744 mmHg 70%
    02:00 +14°C° 0 mm 3 mps 744 mmHg 70%
    03:00 +14°C° 0 mm 3 mps 744 mmHg 69%
    04:00 +14°C° 0 mm 3 mps 744 mmHg 69%
    05:00 +16°C° 0 mm 3 mps 744 mmHg 66%
    06:00 +16°C° 0 mm 3 mps 744 mmHg 63%
    07:00 +17°C° 0 mm 4 mps 744 mmHg 60%
    08:00 +19°C° 0 mm 4 mps 744 mmHg 53%
    09:00 +21°C° 0 mm 4 mps 744 mmHg 46%
    10:00 +23°C° 0 mm 4 mps 744 mmHg 38%
    11:00 +26°C° 0 mm 5 mps 743 mmHg 36%
    12:00 +27°C° 0 mm 5 mps 743 mmHg 34%
    13:00 +28°C° 0 mm 6 mps 743 mmHg 32%
    14:00 +28°C° 0 mm 6 mps 742 mmHg 33%
    15:00 +27°C° 0 mm 6 mps 742 mmHg 34%
    16:00 +27°C° 0 mm 6 mps 742 mmHg 36%
    17:00 +26°C° 0 mm 6 mps 742 mmHg 41%
    18:00 +23°C° 0 mm 6 mps 743 mmHg 46%
    19:00 +21°C° 0 mm 5 mps 743 mmHg 52%
    20:00 +20°C° 0 mm 4 mps 743 mmHg 58%
    21:00 +18°C° 0 mm 3 mps 744 mmHg 64%
    22:00 +17°C° 0 mm 2 mps 744 mmHg 70%
    23:00 +17°C° 0 mm 2 mps 744 mmHg 72%

    29 January, Tuesday

    Time Temperature Precipitation Wind Pressure Humidity
    00:00 +16°C° 0 mm 2 mps 744 mmHg 73%
    01:00 +16°C° 0 mm 2 mps 744 mmHg 75%
    02:00 +16°C° 0 mm 2 mps 744 mmHg 74%
    03:00 +16°C° 0 mm 2 mps 744 mmHg 74%
    04:00 +16°C° 0 mm 2 mps 744 mmHg 73%
    05:00 +17°C° 0 mm 2 mps 745 mmHg 70%
    06:00 +18°C° 0 mm 2 mps 745 mmHg 66%
    07:00 +18°C° 0 mm 3 mps 745 mmHg 63%
    08:00 +21°C° 0 mm 2 mps 745 mmHg 54%
    09:00 +24°C° 0 mm 2 mps 745 mmHg 46%
    10:00 +26°C° 0 mm 2 mps 744 mmHg 37%
    11:00 +28°C° 0 mm 2 mps 744 mmHg 32%
    12:00 +30°C° 0 mm 2 mps 744 mmHg 26%
    13:00 +33°C° 0 mm 3 mps 743 mmHg 21%
    14:00 +33°C° 0 mm 3 mps 743 mmHg 22%
    15:00 +33°C° 0 mm 3 mps 743 mmHg 23%
    16:00 +33°C° 0 mm 4 mps 742 mmHg 24%
    17:00 +29°C° 0 mm 3 mps 743 mmHg 31%
    18:00 +27°C° 0 mm 3 mps 743 mmHg 39%
    19:00 +24°C° 0 mm 3 mps 743 mmHg 46%
    20:00 +21°C° 0 mm 2 mps 744 mmHg 58%
    21:00 +20°C° 0 mm 1 mps 744 mmHg 70%
    22:00 +16°C° 0 mm 1 mps 744 mmHg 82%
    23:00 +16°C° 0 mm 1 mps 744 mmHg 84%
    Show more